Location: Stony Creek
(40.9500°S, 175.8500°E)
Time: 08:42:56
(UTC+00:00)

USA 276 - Pass Details

Date: 15 May 2026
Orbit: 366 x 369 km, 50.0° (Epoch: 12 July)

Event Time Altitude Azimuth Distance (km) Brightness Sun altitude
Exits shadow 18:04:01 27° 218° (SW) 690 2.9 -14.0°
Maximum altitude 18:05:19 55° 150° (SSE) 417 2.3 -13.7°
Drops below altitude 10° 18:08:16 10° 70° (ENE) 1,330 6.3 -13.2°
Sets 18:10:23 0° 65° (ENE) 2,195 7.8 -12.8°
